Location: Castelbiague
(43.0361°N, 0.9246°E)
Time: 13:34:08
(UTC+00:00)

Cosmos 2061 Rocket - Pass Details

Date: 17 June 2021
Orbit: 965 x 1013 km, 82.9° (Epoch: 04 August)

Event Time Altitude Azimuth Distance (km) Brightness Sun altitude
Rises 21:46:29 0° 352° (N) 3,759 8.3 -17.1°
Reaches altitude 10° 21:49:03 10° 353° (N) 2,803 7.4 -17.3°
Maximum altitude 21:55:32 87° 83° (E) 1,017 4.0 -17.9°
Enters shadow 21:59:16 27° 172° (S) 1,822 4.9 -18.2°
